DW0226 Weather Reports


time (UTC)temp
C
wind
direction
speed
KPH
gust
KPH
rain 1hr
cm
rain 24hr
cm
rain mn
cm
humidity
%
barometer
mb
20260507081035 14 331 0.0 0.0 0.00 0.20 0.20 89 1008.8
20260507080023 15 284 0.0 4.8 0.00 0.20 0.20 89 1008.7
20260507075033 15 41 0.0 3.2 0.00 0.20 0.20 89 1008.5
20260507074023 15 355 0.0 14.5 0.00 0.20 0.20 89 1008.6
20260507073055 15 323 3.2 12.9 0.00 0.20 0.20 90 1009.1
20260507072020 15 312 0.0 11.3 0.00 0.20 0.20 90 1008.9
20260507071028 15 314 0.0 14.5 0.00 0.20 0.20 90 1008.8
20260507070059 15 311 0.0 9.7 0.00 0.20 0.20 91 1008.6
20260507065028 16 305 4.8 9.7 0.00 0.20 0.20 91 1008.3
20260507064016 16 63 0.0 6.4 0.00 0.20 0.20 91 1007.4
20260507063029 16 315 3.2 9.7 0.00 0.20 0.20 91 1007.3
20260507062036 16 47 0.0 3.2 0.00 0.20 0.20 91 1007.0
20260507061027 16 313 0.0 3.2 0.00 0.20 0.20 91 1007.5
20260507060035 16 26 0.0 3.2 0.00 0.20 0.20 91 1007.5
20260507055043 17 302 0.0 1.6 0.00 0.20 0.20 91 1008.0
20260507054028 17 62 0.0 4.8 0.00 0.20 0.20 91 1007.7
20260507053023 17 331 0.0 8.0 0.00 0.20 0.20 93 1008.0
20260507052029 17 284 0.0 6.4 0.00 0.20 0.20 94 1008.0
20260507051037 17 278 0.0 3.2 0.00 0.20 0.20 94 1008.1
20260507050025 17 159 0.0 0.0 0.00 0.20 0.20 94 1007.9
20260507045019 17 159 0.0 0.0 0.00 0.20 0.20 94 1007.8
20260507044047 16 159 0.0 0.0 0.00 0.20 0.20 93 1007.8
20260507043034 16 159 0.0 0.0 0.00 0.20 0.20 93 1008.1
20260507042021 16 159 0.0 0.0 0.00 0.20 0.20 93 1008.0
20260507041034 16 159 0.0 0.0 0.00 0.20 0.20 93 1007.7
20260507040024 17 159 0.0 0.0 0.00 0.20 0.20 93 1007.8
20260507035033 17 159 0.0 0.0 0.00 0.20 0.20 93 1007.9
20260507034024 16 159 0.0 0.0 0.00 0.20 0.20 93 1007.9
20260507033032 16 159 0.0 0.0 0.00 0.20 0.20 93 1008.3
20260507032022 16 159 0.0 0.0 0.00 0.20 0.20 92 1007.8
20260507031029 16 159 0.0 0.0 0.00 0.20 0.20 92 1007.4
20260507030023 17 159 0.0 0.0 0.00 0.20 0.20 92 1007.2
20260507025029 17 159 0.0 0.0 0.00 0.20 0.20 92 1006.9
20260507024038 17 159 0.0 0.0 0.00 0.20 0.20 92 1007.1
20260507023027 17 159 0.0 0.0 0.00 0.20 0.20 92 1007.2
20260507022017 17 159 0.0 0.0 0.00 0.20 0.20 91 1007.5
20260507021027 17 159 0.0 0.0 0.00 0.20 0.20 91 1007.8
20260507020038 17 159 0.0 0.0 0.00 0.20 0.20 90 1008.0
20260507015021 17 159 0.0 0.0 0.00 0.20 0.20 90 1007.7
20260507014033 17 159 0.0 0.0 0.00 0.20 0.20 89 1007.8
20260507013021 17 159 0.0 0.0 0.00 0.20 0.20 89 1007.6
20260507012027 17 159 0.0 0.0 0.00 0.20 0.20 88 1007.4
20260507010028 18 159 0.0 0.0 0.00 0.20 0.20 87 1007.6
20260507005055 18 159 0.0 0.0 0.00 0.20 0.20 84 1007.6
20260507004020 19 159 0.0 0.0 0.00 0.20 0.20 84 1007.5
20260507003050 20 159 0.0 0.0 0.00 0.20 0.20 82 1007.5
20260507002019 20 159 0.0 0.0 0.00 0.20 0.20 82 1007.5
20260507001027 20 159 0.0 1.6 0.00 0.20 0.20 81 1007.5
20260507000034 20 237 1.6 4.8 0.00 0.20 0.20 81 1007.2
20260506235020 21 240 0.0 1.6 0.00 0.20 0.20 80 1006.9
20260506234051 21 240 1.6 3.2 0.00 0.20 0.20 80 1007.1
20260506233023 21 233 0.0 3.2 0.00 0.20 0.20 81 1007.1
20260506232033 21 174 0.0 9.7 0.00 0.20 0.20 80 1007.1
20260506231029 21 184 1.6 4.8 0.00 0.20 0.20 80 1007.1
20260506230105 21 164 1.6 6.4 0.00 0.20 0.20 79 1006.9
20260506225047 21 278 1.6 9.7 0.00 0.20 0.20 79 1007.0
20260506224029 21 261 6.4 11.3 0.00 0.20 0.20 79 1007.0
20260506223104 21 198 8.0 17.7 0.00 0.20 0.20 78 1006.9
20260506222023 21 292 4.8 17.7 0.00 0.20 0.20 78 1006.8
20260506221033 21 248 8.0 19.3 0.00 0.20 0.20 79 1006.7
20260506220021 21 246 6.4 19.3 0.00 0.20 0.20 79 1007.0
20260506215034 21 284 6.4 14.5 0.00 0.20 0.20 79 1007.0
20260506214025 21 233 1.6 16.1 0.00 0.20 0.20 80 1006.9
20260506213034 21 208 6.4 19.3 0.00 0.20 0.20 79 1007.0
20260506212024 21 177 4.8 24.1 0.00 0.20 0.20 80 1007.0
20260506211034 21 220 6.4 17.7 0.00 0.20 0.20 80 1007.1
20260506210044 21 211 6.4 19.3 0.00 0.20 0.20 80 1007.2
20260506205034 20 196 8.0 19.3 0.00 0.20 0.20 80 1006.9
20260506204045 20 229 4.8 17.7 0.00 0.20 0.20 80 1007.0
20260506203018 20 217 8.0 16.1 0.00 0.20 0.20 81 1007.1
20260506202045 20 197 6.4 14.5 0.00 0.20 0.20 81 1006.9
20260506201031 20 173 3.2 17.7 0.00 0.20 0.20 82 1007.1
20260506200019 20 150 1.6 14.5 0.00 0.20 0.20 83 1007.1
20260506195047 20 219 1.6 12.9 0.00 0.20 0.20 83 1007.2
20260506194019 20 219 0.0 9.7 0.00 0.20 0.20 83 1007.6
20260506193048 20 245 8.0 14.5 0.00 0.20 0.20 82 1007.8
20260506192056 20 250 8.0 14.5 0.00 0.20 0.20 82 1008.0
20260506191023 20 252 6.4 17.7 0.00 0.20 0.20 82 1007.9
20260506190034 20 257 6.4 27.4 0.00 0.20 0.20 82 1007.9
20260506185020 20 256 6.4 11.3 0.00 0.20 0.20 82 1008.2
20260506184030 20 269 8.0 16.1 0.00 0.20 0.20 83 1008.4
20260506183038 20 258 4.8 17.7 0.00 0.20 0.20 82 1008.5
20260506182028 20 259 8.0 17.7 0.00 0.20 0.20 82 1008.7
20260506181036 20 175 9.7 19.3 0.00 0.20 0.20 82 1008.6
20260506180044 19 256 6.4 16.1 0.00 0.20 0.20 83 1008.4
20260506175049 19 213 6.4 19.3 0.00 0.20 0.20 84 1008.7
20260506174058 18 221 6.4 16.1 0.00 0.20 0.20 85 1008.7
20260506173028 18 163 1.6 12.9 0.00 0.20 0.20 85 1008.8
20260506172034 18 189 3.2 11.3 0.00 0.20 0.20 86 1008.8
20260506171023 18 164 0.0 14.5 0.00 0.20 0.20 87 1008.8
20260506170034 18 242 3.2 16.1 0.03 0.20 0.20 87 1009.0
20260506165044 17 235 4.8 17.7 0.05 0.20 0.20 87 1009.0
20260506164030 17 219 12.9 19.3 0.05 0.20 0.20 88 1009.5
20260506163038 17 229 8.0 22.5 0.08 0.20 0.20 89 1009.3
20260506162025 17 187 1.6 9.7 0.13 0.20 0.20 90 1009.1
20260506161056 17 149 3.2 14.5 0.15 0.20 0.20 90 1009.2
20260506160023 17 219 3.2 11.3 0.15 0.18 0.18 89 1009.6
20260506155029 17 138 6.4 12.9 0.15 0.18 0.18 89 1009.6
20260506154019 17 229 3.2 9.7 0.13 0.15 0.15 88 1009.8
20260506153059 17 155 1.6 17.7 0.10 0.13 0.13 87 1009.8
20260506152039 17 226 6.4 14.5 0.05 0.08 0.08 85 1010.0
20260506151024 17 243 4.8 17.7 0.03 0.05 0.05 84 1010.1
20260506150033 18 200 6.4 11.3 0.00 0.03 0.03 83 1010.1
20260506145021 18 226 3.2 14.5 0.03 0.03 0.03 83 1010.2
20260506144028 18 148 3.2 9.7 0.03 0.03 0.03 84 1010.1
20260506143036 17 210 3.2 8.0 0.03 0.03 0.03 84 1009.9
20260506142022 17 208 1.6 8.0 0.03 0.03 0.03 83 1009.9
20260506141033 17 244 4.8 8.0 0.03 0.03 0.03 83 1010.0
20260506140024 18 203 0.0 6.4 0.03 0.03 0.03 81 1010.1
20260506135031 18 254 4.8 14.5 0.00 0.00 0.00 80 1010.2
20260506134018 18 219 1.6 8.0 0.00 0.00 0.00 78 1009.9
20260506133034 18 212 1.6 9.7 0.00 0.00 0.00 77 1010.2
20260506132040 19 275 1.6 17.7 0.00 0.00 0.00 75 1010.0
20260506131021 19 147 1.6 12.9 0.00 0.00 0.00 75 1010.0
20260506130030 19 155 6.4 11.3 0.00 0.00 0.00 74 1009.7
20260506125041 19 163 4.8 17.7 0.00 0.00 0.00 74 1009.8
20260506124026 19 94 4.8 14.5 0.00 0.00 0.00 73 1009.8
20260506123033 19 263 1.6 14.5 0.00 0.00 0.00 74 1009.8
20260506122021 19 153 1.6 14.5 0.00 0.00 0.00 74 1009.8
20260506121032 19 148 3.2 11.3 0.00 0.00 0.00 74 1010.1
20260506120042 18 216 4.8 14.5 0.00 0.00 0.00 74 1010.1
20260506115027 18 192 6.4 14.5 0.00 0.00 0.00 74 1010.1
20260506114056 18 46 3.2 11.3 0.00 0.00 0.00 75 1010.1
20260506113022 18 217 0.0 9.7 0.00 0.00 0.00 75 1010.0
20260506112037 18 165 4.8 9.7 0.00 0.00 0.00 75 1009.9
20260506111024 18 229 6.4 14.5 0.00 0.00 0.00 75 1010.0
20260506110052 18 110 4.8 14.5 0.00 0.00 0.00 76 1009.8
20260506105037 17 130 1.6 8.0 0.00 0.00 0.00 77 1009.8
20260506104027 17 192 1.6 8.0 0.00 0.00 0.00 77 1009.9
20260506103018 17 182 3.2 16.1 0.00 0.00 0.00 77 1009.7
20260506102027 17 205 1.6 6.4 0.00 0.00 0.00 78 1009.6
20260506101048 17 169 1.6 9.7 0.00 0.00 0.00 78 1009.5
20260506100037 17 225 4.8 11.3 0.00 0.00 0.00 78 1009.6
20260506095044 17 209 1.6 8.0 0.00 0.00 0.00 79 1009.6
20260506094029 17 173 1.6 8.0 0.00 0.00 0.00 79 1009.7
20260506093017 17 225 4.8 11.3 0.00 0.00 0.00 79 1009.6
20260506092031 17 252 3.2 9.7 0.00 0.00 0.00 79 1009.7
20260506091019 18 130 3.2 12.9 0.00 0.00 0.00 78 1009.8
20260506090048 18 267 3.2 14.5 0.00 0.00 0.00 78 1009.8
20260506085030 18 194 3.2 16.1 0.00 0.00 0.00 78 1009.8
20260506084036 18 115 8.0 20.9 0.00 0.00 0.00 78 1009.9
20260506083028 18 218 6.4 11.3 0.00 0.00 0.00 78 1009.8
20260506082057 18 164 1.6 11.3 0.00 0.00 0.00 78 1009.8